HULIANWANG DIGUI-57

导读

HULIANWANG DIGUI-57是中国于2025年8月4日发射的低轨互联网卫星,隶属于中国低轨卫星互联网星座体系。该卫星旨在依托天地一体化网络建设,增强全球互联网覆盖能力,为偏远地区、海洋空域提供宽带网络服务,支撑物联网、空天通信等场景应用,推动我国卫星互联网产业发展,助力构建全球互联的空天通信基础设施。

基本信息
目录编号:
65114
目录名称:
HULIANWANG DIGUI-57
国际标识:
2025-168J
轨道中心:
EARTH
卫星名称:
HULIANWANG DIGUI-57
卫星全名:
HULIANWANG DIGUI-57
卫星状态:
在轨 (已飞行321 天)
发射日期:
2025-08-04 UTC
国别 :
中国 (CN)
星等 :
--
轨道信息
数据来源 国际轨道数据 AOE轨道数据
星历时间 2026-06-20T17:39:36+0800
14小时前
查看轨道信息
2026-06-19T09:00:00+0800
1天前
查看轨道信息
半长轴 7527.45km 7527.452km
偏心率 0.000982 0.0009861
轨道倾角 50.003° 50.005°
近地点辐角 116.097° 108.401°
升交点赤经 313.808° 318.687°
平近点角 244.092° 215.400°
近地点 1141.921km 1141.892km
远地点 1156.705km 1156.738km
周期 108.326分钟 108.326分钟
每日圈数 13.293243 13.293238
详细信息
使用方式:
暂无
2D轨道图
3D轨道图
轨道高度分析图
轨道倾角分析图
轨道综合分析图
查看轨道综合分析图